Weather observations for the past three days for
Otis Air National Guard Base
Metric (Imperial)
Date Time (edt) Wind (kph) Vis. (km) Weather Sky Cond. Temperature (ºC) Relative Humidity Wind Chill (°C) Heat Index (°C) Pressure Precipitation (cm)
Air Dwpt 6 hour altimeter (cm) sea level (mb) 1 hr 3 hr 6 hr
Max. Min.
08 00:55 NW 17 16.09 Fair CLR 9 -1 50% 7 75.62 0.0
07 23:55 NW 11 16.09 Fair CLR 9 -1 50% 8 75.62 0.0
07 22:55 NW 13 16.09 Fair CLR 9 1 58% 7 75.64 0.0
07 21:55 NW 11 16.09 Fair CLR 9 1 58% 8 75.64 0.0
07 20:55 NW 9 16.09 Fair CLR 10 4 67% 9 75.57 0.0
07 19:56 SW 7 16.09 Fair CLR 11 6 72% 75.49 0.0
07 18:56 SW 19 16.09 Fair CLR 14 4 51% 75.46 0.0
07 17:56 SW 26 16.09 Fair CLR 15 3 45% 75.44 0.0
07 16:56 SW 28 16.09 Fair CLR 16 4 45% 75.41 0.0
07 15:56 SW 24 16.09 Fair CLR 16 6 52% 75.44 0.0
07 14:56 SW 19 16.09 Partly Cloudy FEW031 SCT050 16 8 59% 75.49 0.0
07 13:56 SW 17 16.09 Partly Cloudy FEW035 SCT050 16 7 55% 75.54 0.0
07 12:55 SW 7 16.09 Mostly Cloudy BKN033 BKN042 16 7 55% 75.57 0.0
07 11:56 W 15 16.09 Mostly Cloudy BKN029 14 7 63% 75.62 0.0
07 10:56 NW 11 16.09 Mostly Cloudy SCT017 BKN100 12 8 77% 75.64 0.0
07 09:56 NW 15 16.09 Overcast FEW031 OVC095 10 8 88% 8 75.67 0.0
07 08:56 NW 7 16.09 Light Rain FEW016 OVC070 9 8 94% 8 75.67 0.0
07 07:56 N 11 12.87 Light Rain BKN080 OVC065 9 8 94% 8 75.64 0.0
07 06:56 N 11 12.87 Light Rain SCT047 BKN065 OVC080 10 9 94% 9 75.59 0.0
07 05:45 NW 17 9.66 Light Rain Fog/Mist SCT008 BKN049 OVC070 11 11 100% 75.51 0.0
07 04:55 S 7 9.66 Light Rain Fog/Mist OVC004 11 11 100% 75.54 0.0
07 03:45 SW 9 4.02 Light Rain Fog/Mist OVC003 11 11 100% 75.49 0.0
07 02:55 SW 11 2.01 Fog/Mist OVC003 11 11 100% 75.54 0.0
07 01:55 SW 20 4.83 Fog/Mist OVC003 12 11 94% 75.54 0.0
07 00:55 SW 19 3.22 Fog/Mist OVC003 12 12 100% 75.59 0.0
06 23:55 SW 26 4.83 Fog/Mist OVC004 12 12 100% 75.62 0.0
06 22:45 SW 24 9.66 Fog/Mist OVC004 13 13 100% 75.62 0.0
06 21:55 SW 33 9.66 Fog/Mist and Breezy OVC006 14 13 94% 75.67 0.0
06 20:55 SW 31 9.66 Light Rain Fog/Mist OVC006 14 13 94% 75.67 0.0
06 19:55 S 35 2.01 Rain Fog/Mist and Breezy OVC006 14 13 94% 75.64 0.0
06 18:55 S 35 4.02 Rain Fog/Mist and Breezy BKN010 OVC015 14 13 94% 75.69 0.0
06 17:55 S 30 16.09 Overcast BKN029 BKN100 OVC110 16 13 83% 75.69 0.0
06 16:55 S 33 16.09 Light Rain and Breezy BKN032 BKN090 OVC110 17 13 77% 75.74 0.0
06 15:55 S 43 G 56 16.09 Overcast and Windy OVC030 17 12 73% 75.77 0.0
06 14:55 S 44 G 59 16.09 Overcast and Windy OVC030 18 12 68% 75.82 0.0
06 13:55 S 44 G 59 16.09 Fair and Windy CLR 20 13 64% 75.87 0.0
06 12:55 SW 43 G 67 16.09 Fair and Windy CLR 19 13 68% 75.92 0.0
06 11:55 S 39 G 57 16.09 Fair and Breezy CLR 19 13 68% 76 0.0
06 10:56 SW 37 G 48 16.09 Fair and Breezy CLR 19 13 68% 76 0.0
06 09:56 S 46 G 65 16.09 Fair and Windy CLR 19 13 68% 76 0.0
06 08:56 SW 41 G 56 16.09 Fair and Breezy CLR 18 13 73% 76 0.0
06 07:56 SW 48 G 59 16.09 Fair and Windy CLR 17 13 77% 76.02 0.0
06 06:56 SW 39 G 48 16.09 Fair and Breezy CLR 16 13 83% 76.02 0.0
06 05:56 SW 24 G 35 16.09 A Few Clouds FEW012 14 12 88% 76.05 0.0
06 04:56 SW 24 G 46 16.09 Overcast OVC012 14 12 88% 76.05 0.0
06 03:56 SW 39 G 48 16.09 Mostly Cloudy and Breezy BKN010 14 12 88% 76.05 0.0
06 02:56 SW 31 G 43 16.09 Overcast OVC010 14 12 88% 76.05 0.0
06 01:56 SW 24 G 48 16.09 Fair CLR 14 12 88% 76.07 0.0
06 00:56 SW 28 G 41 16.09 Fair CLR 14 12 88% 76.07 0.0
05 23:56 SW 33 G 46 16.09 Fair and Breezy CLR 14 12 88% 76.1 0.0
05 22:56 SW 37 G 48 16.09 Fair and Breezy CLR 15 12 82% 76.07 0.0
05 21:56 SW 30 G 41 16.09 Fair CLR 13 10 82% 76.07 0.0
05 20:56 SW 30 G 43 16.09 Fair CLR 14 8 67% 76.02 0.0
05 19:55 SW 43 16.09 Fair and Windy CLR 14 9 72% 75.95 0.0
05 18:55 SW 39 G 52 16.09 Fair and Breezy CLR 15 10 72% 75.9 0.0
05 17:55 SW 41 G 57 16.09 Fair and Breezy CLR 16 10 68% 75.87 0.0
05 16:55 SW 39 G 52 16.09 Fair and Breezy CLR 17 10 64% 75.87 0.0
05 15:55 S 44 16.09 Fair and Windy CLR 17 11 68% 75.9 0.0
05 14:55 SW 35 16.09 Fair and Breezy CLR 18 11 64% 75.92 0.0
05 13:55 S 35 16.09 Fair and Breezy CLR 18 11 64% 75.95 0.0
05 12:55 SW 35 16.09 Fair and Breezy CLR 18 11 64% 75.97 0.0
05 11:55 SW 28 16.09 Fair CLR 18 11 64% 76 0.0
05 10:56 S 30 16.09 Fair CLR 18 11 64% 76 0.0
05 09:56 SW 31 16.09 Fair CLR 16 11 72% 75.97 0.0
05 08:56 SW 28 16.09 Fair CLR 16 11 72% 75.97 0.0
05 07:56 SW 26 G 33 16.09 Fair CLR 15 11 77% 76 0.0
05 06:56 S 19 16.09 Fair CLR 12 9 82% 75.97 0.0
05 05:56 SW 17 16.09 Fair CLR 10 8 88% 8 75.97 0.0
05 04:56 SW 13 16.09 Fair CLR 9 8 94% 7 75.97 0.0
05 03:56 S 11 16.09 Fair CLR 10 8 88% 9 76 0.0
05 02:56 SW 19 16.09 Fair CLR 11 8 82% 75.97 0.0
05 01:56 SW 19 16.09 Fair CLR 11 8 82% 76 0.0
Date Time (edt) Wind (kph) Vis. (km) Weather Sky Cond. Air Dwpt Max. Min. Relative Humidity Wind Chill (°C) Heat Index (°C) altimeter (cm) sea level (mb) 1 hr 3 hr 6 hr
6 hour
Temperature (ºC) Pressure Precipitation (cm)